Погода в Винах

Россия / Новгородская область     58°21′32″N   32°13′13″E
темп.,
°C
ветер,
м/с
пор.,
м/с
влажн.,
%
обл.,
%
осадки,
мм/ч
давл.,
гПа
погр.,
м
22 мая, вс
вс2200:00+4всв310703 0.0 1009249
03:00+2всв310780 0.0 1010302
06:00+3всв39745 0.0 1011327
09:00+8св46444 0.0 10111356
12:00+11св46320 0.0 10101808
15:00+13ссв46294 0.0 10102136
18:00+12ссв46335 0.0 10092132
21:00+7с39560 0.0 1010255
23 мая, пн
пн2300:00+2с38702 0.0 1011149
03:000ссз25730 0.0 101191
06:00+2сз26647 0.0 1011152
09:00+10ссз59445 0.0 10101169
12:00+13ссз69395 0.0 10091863
15:00+15ссз610312 0.0 10081980
18:00+13ссз610370 0.0 10081538
21:00+9сз3105573 0.0 1009388
24 мая, вт
вт2400:00+7зсз31077100 0.0 1008279
03:00+6ссз398399 0.0 1009285
06:00+7ссз2965100 0.0 1009457
09:00+9ссз4833100 0.0 1010840
12:00+12ссз5928100 0.0 10101591
15:00+8ссв5775100 0.1 1012881
18:00+8ссв4660100 0.1 10121266
21:00+6св2569100 0.1 1014433
25 мая, ср
ср2500:00+5св257398 0.0 1015280
03:00+4св1275100 0.0 101693
06:00+5св237318 0.0 1016193
09:00+9всв12496 0.0 10161203
12:00+13юв12405 0.0 10151501
15:00+15ю22365 0.0 10141801
18:00+14ююз1140100 0.0 10131684
21:00+9сз1169100 0.0 101210
26 мая, чт
чт2600:00+7юв1169100 0.0 101211
03:00+6ююв2272100 0.0 101027
06:00+8юв2369100 0.0 100898
09:00+12юв2462100 0.0 1006300
12:00+12в2672100 0.1 1004282
15:00+11в41096100 3.2 1002681
18:00+10вюв51296100 6.2 999886
21:00+10в51396100 10.9 998881